[[{"header":{"parameterUnit":"m.s-1","parameterCategory":2,"la1":30.2991,"la2":30.254,"lo1":-89.0895,"lo2":-89.0444,"dy":0.0017,"dx":0.0017,"nx":28,"ny":28,"refTime":"2025-12-27T03:00:00:Z","depth":"0","parameterNumber":2,"parameterNumberName":"U-component_of_CURRENTS"},"data":[0,0,0,0,0,0,0,0,0,0,0,0,0,0,0,0,0,0,0,0,0,0,0,0,0,0,0,0,0,0,0,0,0,0,0,0,0,0,0,0,0,0,0,0,0,0,0,0,0,0,0,0,0,0,0,0,0,0,-0.2866,-0.2866,0,-0.2784,-0.2783,-0.2781,-0.2671,-0.267,-0.2669,-0.2668,-0.246,-0.2455,-0.2451,0,0,0,0,0,0,0,0,0,0,0,0,0,-0.276,-0.2763,-0.2866,-0.2866,-0.2866,-0.2785,-0.2782,-0.278,-0.2671,-0.267,-0.2669,-0.2668,-0.2461,-0.2456,-0.245,0,0,0,0,0,0,0,0,0,0,0,0,0,-0.2745,-0.2763,-0.2866,-0.2809,-0.2804,-0.2785,-0.2782,-0.278,-0.2671,-0.267,-0.2669,-0.2667,-0.2463,-0.2456,-0.2449,-0.243,0,0,-0.2427,-0.2424,0,0,0,0,0,0,0,0,-0.2746,-0.2748,-0.2818,-0.2813,-0.2808,-0.2746,-0.2669,-0.266,-0.2671,-0.271,-0.2668,-0.2667,-0.2552,-0.2537,-0.2511,-0.242,-0.2411,-0.2427,-0.2422,-0.2419,-0.2417,0,0,0,0,0,0,0,-0.2748,-0.275,-0.2822,-0.2818,-0.2812,-0.2732,-0.2729,-0.2666,-0.2628,-0.2706,-0.2701,-0.271,-0.2546,-0.2518,-0.2505,-0.2408,-0.2427,-0.2421,-0.2416,-0.2413,-0.2298,-0.2299,0,0,0,0,0,0,-0.2791,-0.2752,-0.2825,-0.2821,-0.2786,-0.2737,-0.2732,-0.2758,-0.2631,-0.2615,-0.2711,-0.2705,-0.2531,-0.2514,-0.2497,-0.2422,-0.2419,-0.2413,-0.2409,-0.2296,-0.2298,-0.2299,0,0,0,0,0,0,-0.2789,-0.2799,-0.2828,-0.2791,-0.2791,-0.2742,-0.277,-0.2757,-0.2737,-0.2638,-0.2617,-0.2707,-0.2529,-0.2507,-0.2451,-0.2415,-0.2409,-0.2403,-0.2295,-0.2297,-0.2298,-0.2301,0,0,0,0,0,0,-0.2786,-0.2799,-0.2814,-0.2796,-0.2796,-0.283,-0.2772,-0.2757,-0.275,-0.2741,-0.2628,-0.2607,-0.2527,-0.2462,-0.2444,-0.2405,-0.2397,-0.2293,-0.2296,-0.2298,-0.2299,-0.2303,-0.2306,0,0,0,0,0,-0.2783,-0.2813,-0.2816,-0.2824,-0.2826,-0.2832,-0.2823,-0.2774,-0.2752,-0.2749,-0.2674,-0.261,-0.2464,-0.2458,-0.2436,-0.2394,-0.2292,-0.2295,-0.2298,-0.2298,-0.2302,-0.2305,0,0,0,0,0,0,-0.2746,-0.2805,-0.2807,-0.2846,-0.285,-0.2818,-0.2808,-0.2793,-0.2733,-0.2715,-0.262,-0.2594,-0.2533,-0.2488,-0.2484,-0.2378,-0.237,-0.2369,-0.2378,-0.2381,-0.2384,-0.2373,-0.2391,0,0,0,0,0,-0.2761,-0.2805,-0.2836,-0.2856,-0.2872,-0.2848,-0.284,-0.282,-0.2779,-0.2751,-0.2676,-0.2599,-0.2528,-0.2477,-0.2417,-0.2355,-0.2287,-0.2323,-0.2326,-0.2328,-0.2311,-0.2225,-0.2217,-0.2308,-0.2308,-0.2308,0,0,-0.2738,-0.2785,-0.2798,-0.2852,-0.2845,-0.2836,-0.2836,-0.284,-0.28,-0.2737,-0.2652,-0.2612,-0.2524,-0.2447,-0.2415,-0.2398,-0.2263,-0.2332,-0.2333,-0.2315,-0.2226,-0.2217,-0.2208,-0.231,-0.231,-0.2309,0,0,-0.2691,-0.2776,-0.2774,-0.2809,-0.284,-0.2837,-0.2853,-0.2842,-0.2809,-0.2754,-0.2695,-0.2648,-0.2535,-0.246,-0.2406,-0.2402,-0.2296,-0.2391,-0.2363,-0.228,-0.227,-0.2261,-0.2131,-0.211,-0.2373,-0.2373,-0.2373,0,-0.264,-0.2645,-0.2765,-0.2778,-0.2762,-0.2843,-0.2789,-0.2805,-0.2763,-0.27,-0.2728,-0.2567,-0.2528,-0.2397,-0.2411,-0.2399,-0.2324,-0.2345,-0.2278,-0.2268,-0.2258,-0.2127,-0.2104,-0.2374,-0.2374,-0.2374,-0.2374,0,-0.256,-0.2583,-0.2593,-0.2628,-0.2662,-0.2634,-0.2697,-0.2695,-0.2681,-0.2647,-0.2555,-0.2532,-0.2409,-0.2424,-0.2412,-0.232,-0.2278,-0.2302,-0.2256,-0.2248,-0.2112,-0.2087,-0.2374,-0.2374,-0.2374,-0.2374,0,0,-0.2286,-0.2484,-0.2456,-0.2439,-0.2557,-0.2535,-0.2559,-0.2505,-0.2423,-0.2466,-0.2323,-0.2318,-0.2318,-0.2268,-0.2266,-0.2244,-0.2138,-0.2253,-0.2248,-0.2099,-0.1903,-0.1901,-0.1874,-0.2144,-0.214,-0.2138,-0.1822,0,-0.2101,-0.2087,-0.2236,-0.2155,-0.2122,-0.2265,-0.2245,-0.2259,-0.2258,-0.2179,-0.2221,-0.2108,-0.2254,-0.2175,-0.2194,-0.2151,-0.208,-0.2218,-0.1954,-0.1945,-0.1925,-0.1849,-0.1798,-0.1517,-0.1798,-0.1794,-0.1791,0,-0.1854,-0.1885,-0.181,-0.1864,-0.1854,-0.1843,-0.1775,-0.1781,-0.1806,-0.1796,-0.1798,-0.1839,-0.1828,-0.1956,-0.189,-0.1967,-0.1926,-0.1925,-0.1912,-0.1891,-0.19,-0.158,-0.1461,-0.1464,-0.1752,-0.1755,-0.1758,0,-0.1474,-0.1522,-0.1436,-0.1464,-0.1589,-0.1537,-0.1558,-0.1602,-0.1559,-0.1542,-0.1483,-0.1526,-0.1485,-0.1523,-0.1636,-0.1705,-0.1561,-0.162,-0.1557,-0.1553,-0.1448,-0.1443,-0.1282,-0.1507,-0.1508,-0.1509,-0.1509,0,-0.1169,-0.1083,-0.1246,-0.1205,-0.1063,-0.1232,-0.1087,-0.1134,-0.1149,-0.1077,-0.1241,-0.1185,-0.1384,-0.1393,-0.1494,-0.1465,-0.142,-0.151,-0.1469,-0.1449,-0.1448,-0.1402,-0.1439,-0.1497,-0.1499,-0.1502,-0.1504,0,-0.0828,-0.0927,-0.0842,-0.0911,-0.0914,-0.0811,-0.0865,-0.0791,-0.0811,-0.0731,-0.0714,-0.085,-0.0899,-0.1085,-0.1113,-0.1211,-0.1187,-0.1196,-0.1162,-0.1126,-0.1105,-0.1146,-0.093,-0.0909,-0.1019,-0.1017,-0.1015,0,-0.0699,-0.0619,-0.0627,-0.0599,-0.0642,-0.0563,-0.0549,-0.0601,-0.0564,-0.054,-0.0481,-0.0514,-0.0567,-0.0636,-0.0856,-0.094,-0.1035,-0.0886,-0.104,-0.1057,-0.1069,-0.1128,-0.1132,-0.0861,-0.0859,-0.0856,-0.0855,0,-0.0472,-0.046,-0.0437,-0.0379,-0.0338,-0.0294,-0.0267,-0.0187,-0.0253,-0.0189,-0.0153,-0.0167,-0.0294,-0.0434,-0.0594,-0.0687,-0.0877,-0.084,-0.0846,-0.0918,-0.0973,-0.0948,-0.1096,-0.0834,-0.0836,-0.0838,-0.0839,-0.084,-0.0331,-0.027,-0.0261,-0.0191,-0.0148,-0.0083,-0.002,-0.0013,0.0063,0.0108,0.0077,0.008,-0.0049,-0.0314,-0.0433,-0.062,-0.0696,-0.0662,-0.0689,-0.0732,-0.079,-0.0896,-0.0634,-0.0635,-0.0636,-0.0636,-0.0637,0,-0.0223,-0.0186,-0.0114,-0.0052,0.0023,0.0011,0.0094,0.0135,0.0204,0.0253,0.0269,0.0241,0.0101,-0.011,-0.0393,-0.0466,-0.0521,-0.051,-0.0566,-0.0565,-0.0606,-0.0687,-0.044,-0.044,-0.044,-0.044,-0.044,-0.044,-0.0181,-0.0102,-0.0073,0.0062,0.0108,0.0195,0.0247,0.0303,0.0349,0.0399,0.0401,0.0379,0.021,-0.0118,-0.0371,-0.0421,-0.0454,-0.045,-0.0489,-0.0534,-0.0551,-0.0568,-0.0653,-0.0403,-0.0403,-0.043,-0.043,-0.0431]},{"header":{"parameterUnit":"m.s-1","parameterCategory":2,"la1":30.2991,"la2":30.254,"lo1":-89.0895,"lo2":-89.0444,"dy":0.0017,"dx":0.0017,"nx":28,"ny":28,"refTime":"2025-12-27T03:00:00:Z","depth":"0","parameterNumber":3,"parameterNumberName":"V-component_of_CURRENTS"},"data":[0,0,0,0,0,0,0,0,0,0,0,0,0,0,0,0,0,0,0,0,0,0,0,0,0,0,0,0,0,0,0,0,0,0,0,0,0,0,0,0,0,0,0,0,0,0,0,0,0,0,0,0,0,0,0,0,0,0,0.1153,0.1155,0,0.1314,0.1316,0.1318,0.1409,0.141,0.141,0.1411,0.1611,0.1616,0.1621,0,0,0,0,0,0,0,0,0,0,0,0,0,0.0963,0.0965,0.1153,0.1155,0.1157,0.1314,0.1316,0.1318,0.1409,0.141,0.141,0.1411,0.1609,0.1615,0.1621,0,0,0,0,0,0,0,0,0,0,0,0,0,0.1075,0.0966,0.1153,0.1223,0.1231,0.1314,0.1316,0.1319,0.1409,0.141,0.141,0.1411,0.1607,0.1615,0.1622,0.1654,0,0,0.1644,0.1648,0,0,0,0,0,0,0,0,0.1069,0.1082,0.121,0.1218,0.1227,0.1344,0.1323,0.1434,0.1409,0.134,0.1411,0.1411,0.1526,0.154,0.1566,0.1664,0.1672,0.1645,0.165,0.1653,0.1655,0,0,0,0,0,0,0,0.1061,0.1076,0.1215,0.1212,0.1223,0.126,0.1276,0.1344,0.1427,0.1346,0.1353,0.1373,0.153,0.1559,0.1572,0.1675,0.1645,0.1651,0.1656,0.1659,0.1777,0.1776,0,0,0,0,0,0,0.1042,0.1068,0.121,0.122,0.115,0.1262,0.1281,0.1304,0.1425,0.1445,0.1373,0.1377,0.1546,0.1563,0.1579,0.157,0.1653,0.166,0.1664,0.1779,0.1777,0.1776,0,0,0,0,0,0,0.1037,0.1053,0.1204,0.1149,0.1171,0.1265,0.1291,0.1307,0.1331,0.1445,0.1465,0.1379,0.1547,0.1569,0.162,0.158,0.1663,0.167,0.178,0.1778,0.1776,0.1586,0,0,0,0,0,0,0.1031,0.105,0.1042,0.1148,0.1173,0.1228,0.1291,0.131,0.1344,0.1351,0.1458,0.1478,0.1549,0.1608,0.1627,0.1592,0.1675,0.1782,0.1779,0.1777,0.1594,0.1578,0.1564,0,0,0,0,0,0.1023,0.1001,0.1041,0.1058,0.1166,0.1227,0.1242,0.1311,0.1343,0.1337,0.141,0.1474,0.1606,0.1613,0.1635,0.1602,0.1783,0.178,0.1777,0.1601,0.1581,0.1565,0,0,0,0,0,0,0.0885,0.1012,0.1057,0.1067,0.1135,0.1242,0.124,0.1298,0.1352,0.1355,0.1464,0.1488,0.1528,0.1589,0.1593,0.163,0.1703,0.1704,0.1561,0.1544,0.1529,0.1494,0.1682,0,0,0,0,0,0.0859,0.0892,0.1005,0.1006,0.1038,0.1139,0.1167,0.1219,0.1291,0.1316,0.1395,0.1471,0.1534,0.1556,0.1633,0.1644,0.1704,0.1637,0.1621,0.1608,0.1595,0.1647,0.1635,0.1766,0.1766,0.1766,0,0,0.0801,0.0876,0.089,0.0981,0.104,0.1067,0.1156,0.1187,0.1197,0.1329,0.1351,0.1437,0.1534,0.1554,0.1573,0.1593,0.16,0.1604,0.1592,0.1587,0.1643,0.163,0.1619,0.1764,0.1765,0.1765,0,0,0.0723,0.0773,0.079,0.0841,0.0929,0.0987,0.0992,0.1096,0.1124,0.1164,0.1261,0.1307,0.1407,0.1455,0.1494,0.1441,0.1538,0.147,0.1342,0.1392,0.1381,0.1372,0.1415,0.1412,0.1438,0.1437,0.1437,0,0.0658,0.0707,0.079,0.0818,0.0861,0.0945,0.0967,0.0987,0.1087,0.1121,0.1142,0.1285,0.1353,0.1384,0.135,0.1404,0.1453,0.1397,0.1369,0.1362,0.1357,0.1403,0.1402,0.1428,0.1429,0.143,0.1431,0,0.0618,0.0646,0.0647,0.0728,0.076,0.0787,0.0851,0.0872,0.0921,0.0971,0.1023,0.1101,0.1198,0.1199,0.125,0.1243,0.1298,0.136,0.1405,0.1331,0.1386,0.1388,0.1414,0.1418,0.1421,0.1423,0,0,0.0542,0.0618,0.0624,0.0672,0.0734,0.0778,0.0758,0.0819,0.0876,0.0867,0.0931,0.0944,0.1008,0.1055,0.1122,0.111,0.1091,0.1187,0.1195,0.1212,0.1196,0.1111,0.1106,0.115,0.1149,0.1149,0.1242,0,0.0514,0.0563,0.06,0.0628,0.0673,0.073,0.0752,0.0792,0.0844,0.091,0.0897,0.1001,0.0943,0.1034,0.098,0.1111,0.1091,0.106,0.1281,0.1287,0.1206,0.1103,0.111,0.1182,0.1245,0.1246,0.1246,0,0.0503,0.055,0.0588,0.0684,0.0713,0.0725,0.0841,0.0867,0.092,0.098,0.0972,0.1029,0.0991,0.1003,0.1014,0.1,0.1066,0.1116,0.1124,0.1112,0.1205,0.1274,0.1185,0.1229,0.1251,0.125,0.125,0,0.0504,0.0556,0.0604,0.0626,0.0721,0.0754,0.0805,0.089,0.0966,0.1038,0.1136,0.1073,0.1139,0.1108,0.1104,0.1109,0.1137,0.1198,0.1166,0.1164,0.1244,0.1246,0.1209,0.1225,0.1225,0.1225,0.1224,0,0.0513,0.0546,0.0613,0.0646,0.0736,0.0789,0.0886,0.0969,0.1079,0.1185,0.1179,0.1268,0.1177,0.1164,0.1128,0.1092,0.1153,0.1112,0.1164,0.1174,0.1169,0.1276,0.1312,0.1228,0.1227,0.1227,0.1226,0,0.0513,0.0552,0.0612,0.0704,0.0743,0.0806,0.0929,0.1007,0.1153,0.1296,0.1337,0.1418,0.1385,0.1259,0.1265,0.1186,0.1178,0.116,0.1143,0.1184,0.1157,0.1184,0.1202,0.125,0.1145,0.1143,0.1141,0,0.0527,0.0555,0.0649,0.0693,0.0729,0.0812,0.0884,0.1022,0.1113,0.1391,0.1464,0.1518,0.153,0.1416,0.1228,0.1091,0.1158,0.1108,0.1089,0.1103,0.1176,0.1192,0.1235,0.1147,0.1146,0.1145,0.1144,0,0.0538,0.0561,0.0606,0.0688,0.0751,0.0842,0.095,0.1046,0.1237,0.1394,0.1632,0.1698,0.159,0.1429,0.1198,0.1116,0.1126,0.108,0.1134,0.1162,0.1148,0.1238,0.1139,0.1133,0.1134,0.1135,0.1136,0.1136,0.0536,0.0554,0.0599,0.0677,0.0757,0.0878,0.0946,0.1067,0.1237,0.1493,0.1646,0.1755,0.1667,0.1312,0.1173,0.1001,0.1044,0.1056,0.1091,0.1107,0.1111,0.0935,0.0947,0.0947,0.0947,0.0946,0.0946,0,0.0542,0.0545,0.0593,0.0693,0.0777,0.0837,0.1,0.1082,0.1247,0.1424,0.1619,0.1702,0.1525,0.1355,0.1117,0.1068,0.1076,0.1085,0.1164,0.1214,0.111,0.1064,0.1052,0.1052,0.1052,0.1052,0.1052,0.1052,0.0541,0.0547,0.056,0.0678,0.0767,0.0889,0.0981,0.1121,0.124,0.1435,0.1525,0.1629,0.162,0.1373,0.1198,0.1164,0.1261,0.1203,0.1267,0.1241,0.1243,0.1245,0.1208,0.1227,0.1227,0.1394,0.1396,0.1397]}],[{"header":{"parameterUnit":"m.s-1","parameterCategory":2,"la1":30.2991,"la2":30.254,"lo1":-89.0895,"lo2":-89.0444,"dy":0.0017,"dx":0.0017,"nx":28,"ny":28,"refTime":"2025-12-27T03:00:00:Z","depth":"2","parameterNumber":2,"parameterNumberName":"U-component_of_CURRENTS"},"data":[0,0,0,0,0,0,0,0,0,0,0,0,0,0,0,0,0,0,0,0,0,0,0,0,0,0,0,0,0,0,0,0,0,0,0,0,0,0,0,0,0,0,0,0,0,0,0,0,0,0,0,0,0,0,0,0,0,0,-0.2296,-0.2296,0,-0.2228,-0.2227,-0.2226,-0.2159,-0.2159,-0.2158,-0.2158,-0.2051,-0.2049,-0.2046,0,0,0,0,0,0,0,0,0,0,0,0,0,-0.2348,-0.2347,-0.2296,-0.2296,-0.2296,-0.2228,-0.2227,-0.2225,-0.2159,-0.2159,-0.2158,-0.2158,-0.2052,-0.2049,-0.2046,0,0,0,0,0,0,0,0,0,0,0,0,0,-0.2302,-0.2347,-0.2297,-0.2258,-0.2255,-0.2229,-0.2227,-0.2225,-0.2159,-0.2159,-0.2158,-0.2158,-0.2053,-0.2049,-0.2046,-0.2034,0,0,-0.2034,-0.2033,0,0,0,0,0,0,0,0,-0.2305,-0.23,-0.2264,-0.2261,-0.2257,-0.2206,-0.2206,-0.2161,-0.2159,-0.219,-0.2158,-0.2157,-0.2103,-0.2095,-0.2077,-0.2029,-0.2025,-0.2034,-0.2032,-0.203,-0.2029,0,0,0,0,0,0,0,-0.2308,-0.2302,-0.2264,-0.2264,-0.226,-0.2238,-0.223,-0.2197,-0.2146,-0.2187,-0.2184,-0.2184,-0.21,-0.2081,-0.2074,-0.2023,-0.2034,-0.2031,-0.2029,-0.2027,-0.1955,-0.1956,0,0,0,0,0,0,-0.2329,-0.2306,-0.2266,-0.2263,-0.2286,-0.2238,-0.2229,-0.2219,-0.2147,-0.2137,-0.2185,-0.2182,-0.2087,-0.2078,-0.207,-0.2081,-0.203,-0.2027,-0.2025,-0.1955,-0.1956,-0.1956,0,0,0,0,0,0,-0.233,-0.2326,-0.2269,-0.2287,-0.2279,-0.2238,-0.2227,-0.2218,-0.2208,-0.2147,-0.2135,-0.2186,-0.2087,-0.2075,-0.2043,-0.2075,-0.2025,-0.2022,-0.1955,-0.1955,-0.1956,-0.2084,0,0,0,0,0,0,-0.2332,-0.2326,-0.2328,-0.2288,-0.2279,-0.2271,-0.2228,-0.2217,-0.2211,-0.2206,-0.2144,-0.2133,-0.2085,-0.2049,-0.2039,-0.2069,-0.2019,-0.1954,-0.1955,-0.1956,-0.2079,-0.2089,-0.2097,0,0,0,0,0,-0.2333,-0.2343,-0.2328,-0.2324,-0.2281,-0.2273,-0.2266,-0.2231,-0.2213,-0.2218,-0.2166,-0.2135,-0.2046,-0.2046,-0.2035,-0.2064,-0.1954,-0.1955,-0.1956,-0.2075,-0.2087,-0.2097,0,0,0,0,0,0,-0.2361,-0.2337,-0.2319,-0.2318,-0.2305,-0.2264,-0.2265,-0.2245,-0.2209,-0.2201,-0.2138,-0.2123,-0.21,-0.2063,-0.2064,-0.2042,-0.1996,-0.1995,-0.2091,-0.2101,-0.211,-0.2056,-0.2016,0,0,0,0,0,-0.2371,-0.2371,-0.2346,-0.2346,-0.2343,-0.2307,-0.23,-0.2281,-0.2246,-0.2229,-0.2189,-0.2138,-0.2093,-0.2083,-0.2031,-0.2031,-0.1946,-0.204,-0.2049,-0.2057,-0.2003,-0.1916,-0.1912,-0.1958,-0.1958,-0.1958,0,0,-0.2381,-0.2369,-0.2367,-0.2353,-0.2334,-0.2336,-0.23,-0.23,-0.2295,-0.2224,-0.2206,-0.2161,-0.2093,-0.2079,-0.2068,-0.2058,-0.2008,-0.2058,-0.2066,-0.2006,-0.1916,-0.1911,-0.1907,-0.1959,-0.1959,-0.1959,0,0,-0.2401,-0.2391,-0.2396,-0.2396,-0.2387,-0.2369,-0.2378,-0.2351,-0.2332,-0.232,-0.2255,-0.2229,-0.2181,-0.2136,-0.2105,-0.2132,-0.2044,-0.2131,-0.215,-0.207,-0.2064,-0.2059,-0.1984,-0.197,-0.2153,-0.2153,-0.2154,0,-0.2416,-0.2401,-0.2399,-0.2409,-0.2396,-0.239,-0.2384,-0.2383,-0.235,-0.23,-0.233,-0.2207,-0.2201,-0.2126,-0.2155,-0.2154,-0.2077,-0.2128,-0.2081,-0.2073,-0.2065,-0.1988,-0.1972,-0.216,-0.2159,-0.2158,-0.2158,0,-0.2422,-0.2426,-0.2434,-0.2433,-0.2433,-0.243,-0.2427,-0.2417,-0.2405,-0.2367,-0.2296,-0.2281,-0.2181,-0.2224,-0.2209,-0.2146,-0.2101,-0.2094,-0.2058,-0.2068,-0.1987,-0.1968,-0.2169,-0.2166,-0.2165,-0.2163,0,0,-0.2393,-0.2426,-0.2425,-0.2412,-0.2432,-0.2416,-0.2425,-0.2371,-0.2315,-0.233,-0.2229,-0.2241,-0.219,-0.2149,-0.2138,-0.2123,-0.2075,-0.2098,-0.2091,-0.2028,-0.1875,-0.1818,-0.179,-0.2052,-0.2049,-0.2046,-0.1857,0,-0.2378,-0.2377,-0.2405,-0.2399,-0.2381,-0.2386,-0.2375,-0.2339,-0.2303,-0.2222,-0.2197,-0.212,-0.2175,-0.2135,-0.2119,-0.2062,-0.2018,-0.2124,-0.1865,-0.1856,-0.1809,-0.1763,-0.1696,-0.1516,-0.1837,-0.1833,-0.1831,0,-0.2338,-0.234,-0.2323,-0.2315,-0.2307,-0.2319,-0.2228,-0.2221,-0.2134,-0.2096,-0.2015,-0.1972,-0.1927,-0.1989,-0.1875,-0.193,-0.1884,-0.1874,-0.1866,-0.1731,-0.1759,-0.1547,-0.1467,-0.1796,-0.1799,-0.1801,-0.1804,0,-0.2228,-0.2264,-0.223,-0.2235,-0.2248,-0.2225,-0.2221,-0.2155,-0.2116,-0.1995,-0.1946,-0.184,-0.1804,-0.1731,-0.1733,-0.1773,-0.1604,-0.1652,-0.1542,-0.1539,-0.1381,-0.1369,-0.152,-0.152,-0.1521,-0.1521,-0.1522,0,-0.2139,-0.2126,-0.2183,-0.2159,-0.2117,-0.2147,-0.2077,-0.2045,-0.1985,-0.1921,-0.1865,-0.1802,-0.1739,-0.1657,-0.164,-0.1518,-0.1511,-0.1489,-0.1464,-0.143,-0.1425,-0.1582,-0.1592,-0.1514,-0.1516,-0.1517,-0.1518,0,-0.2011,-0.2049,-0.203,-0.2053,-0.2064,-0.2026,-0.2046,-0.1988,-0.1951,-0.1867,-0.1834,-0.1742,-0.1624,-0.1553,-0.1434,-0.1401,-0.1304,-0.1259,-0.123,-0.1204,-0.1311,-0.133,-0.1077,-0.1073,-0.107,-0.1067,-0.1064,0,-0.194,-0.1916,-0.195,-0.1949,-0.197,-0.1957,-0.1944,-0.1947,-0.1912,-0.1851,-0.1801,-0.1668,-0.1558,-0.134,-0.122,-0.1067,-0.117,-0.0939,-0.1009,-0.1252,-0.1254,-0.1279,-0.1302,-0.0869,-0.0865,-0.0862,-0.0859,0,-0.1824,-0.185,-0.1843,-0.1834,-0.1841,-0.1838,-0.1844,-0.1819,-0.1818,-0.174,-0.1645,-0.1559,-0.137,-0.1158,-0.0969,-0.0896,-0.0958,-0.0869,-0.1069,-0.1011,-0.1045,-0.1052,-0.1082,-0.0831,-0.0834,-0.0836,-0.0838,-0.0839,-0.1762,-0.1736,-0.1739,-0.1719,-0.1728,-0.1705,-0.1659,-0.165,-0.1563,-0.1422,-0.1457,-0.1264,-0.123,-0.0851,-0.0761,-0.0649,-0.0724,-0.0704,-0.0717,-0.0733,-0.0762,-0.079,-0.0533,-0.0534,-0.0535,-0.0536,-0.0537,0,-0.1655,-0.165,-0.163,-0.1603,-0.1562,-0.1604,-0.1573,-0.1458,-0.1305,-0.1212,-0.1073,-0.0886,-0.0735,-0.0693,-0.049,-0.0442,-0.0469,-0.0416,-0.0491,-0.0517,-0.0541,-0.0565,-0.0281,-0.028,-0.0279,-0.0279,0,0,-0.1606,-0.1542,-0.1521,-0.1436,-0.1429,-0.1334,-0.1288,-0.1087,-0.0967,-0.074,-0.0632,-0.0604,-0.0664,-0.0473,-0.0428,-0.0332,-0.0415,-0.0289,-0.0493,-0.0607,-0.063,-0.07,-0.0764,0,0,0,0,0]},{"header":{"parameterUnit":"m.s-1","parameterCategory":2,"la1":30.2991,"la2":30.254,"lo1":-89.0895,"lo2":-89.0444,"dy":0.0017,"dx":0.0017,"nx":28,"ny":28,"refTime":"2025-12-27T03:00:00:Z","depth":"2","parameterNumber":3,"parameterNumberName":"V-component_of_CURRENTS"},"data":[0,0,0,0,0,0,0,0,0,0,0,0,0,0,0,0,0,0,0,0,0,0,0,0,0,0,0,0,0,0,0,0,0,0,0,0,0,0,0,0,0,0,0,0,0,0,0,0,0,0,0,0,0,0,0,0,0,0,-0.0274,-0.0274,0,-0.0272,-0.0272,-0.0272,-0.0273,-0.0273,-0.0273,-0.0273,-0.0204,-0.0202,-0.02,0,0,0,0,0,0,0,0,0,0,0,0,0,-0.0357,-0.0355,-0.0274,-0.0274,-0.0274,-0.0272,-0.0272,-0.0272,-0.0273,-0.0273,-0.0273,-0.0273,-0.0204,-0.0202,-0.02,0,0,0,0,0,0,0,0,0,0,0,0,0,-0.0334,-0.0354,-0.0274,-0.0274,-0.0275,-0.0272,-0.0272,-0.0272,-0.0273,-0.0273,-0.0273,-0.0273,-0.0205,-0.0202,-0.0199,-0.0178,0,0,-0.019,-0.0189,0,0,0,0,0,0,0,0,-0.0335,-0.033,-0.0274,-0.0274,-0.0275,-0.0273,-0.0276,-0.0238,-0.0273,-0.0273,-0.0273,-0.0273,-0.0221,-0.0217,-0.0216,-0.0175,-0.0172,-0.019,-0.0188,-0.0187,-0.0186,0,0,0,0,0,0,0,-0.0336,-0.0331,-0.0273,-0.0274,-0.0275,-0.0302,-0.0298,-0.0269,-0.0244,-0.0273,-0.0273,-0.0274,-0.022,-0.0219,-0.0214,-0.0171,-0.019,-0.0188,-0.0186,-0.0185,-0.0053,-0.0051,0,0,0,0,0,0,-0.0333,-0.0332,-0.0273,-0.0273,-0.0306,-0.03,-0.0296,-0.0273,-0.0246,-0.0243,-0.0274,-0.0274,-0.0224,-0.0218,-0.0212,-0.0103,-0.0187,-0.0184,-0.0183,-0.0055,-0.0052,-0.0051,0,0,0,0,0,0,-0.0334,-0.0327,-0.0273,-0.0305,-0.03,-0.0298,-0.0273,-0.0273,-0.0246,-0.0248,-0.0243,-0.0244,-0.0224,-0.0216,-0.0171,-0.0103,-0.0183,-0.018,-0.0057,-0.0054,-0.0051,0.0063,0,0,0,0,0,0,-0.0336,-0.0327,-0.0292,-0.0303,-0.0298,-0.0245,-0.0273,-0.0273,-0.0248,-0.0248,-0.0221,-0.0216,-0.0223,-0.0176,-0.0169,-0.01,-0.0178,-0.0059,-0.0055,-0.0052,0.0057,0.0069,0.008,0,0,0,0,0,-0.0339,-0.03,-0.0289,-0.0282,-0.0254,-0.0243,-0.0242,-0.0243,-0.0246,-0.0221,-0.0215,-0.0216,-0.0149,-0.0172,-0.0164,-0.0093,-0.006,-0.0056,-0.0053,0.0052,0.0067,0.008,0,0,0,0,0,0,-0.0337,-0.0297,-0.0286,-0.024,-0.0228,-0.0243,-0.0221,-0.0223,-0.0198,-0.0193,-0.0196,-0.019,-0.0132,-0.0132,-0.0157,-0.0049,-0.0103,-0.0097,-0.0026,-0.0012,-0.0001,0.0018,-0.0176,0,0,0,0,0,-0.0315,-0.0261,-0.0249,-0.0212,-0.02,-0.0202,-0.0192,-0.0193,-0.0185,-0.0174,-0.0157,-0.0137,-0.0113,-0.0078,-0.007,0.0002,-0.0016,0.0052,0.0063,0.0073,0.0092,0.0123,0.0139,-0.0038,-0.0038,-0.0038,0,0,-0.0318,-0.0277,-0.0256,-0.0205,-0.0197,-0.0169,-0.0194,-0.0171,-0.0138,-0.0168,-0.0106,-0.0103,-0.0093,-0.003,0.0001,-0.0011,0.0107,0.0078,0.0087,0.0101,0.0129,0.0146,0.0161,-0.0035,-0.0035,-0.0036,0,0,-0.0311,-0.0245,-0.0212,-0.0178,-0.0143,-0.013,-0.0113,-0.0102,-0.0078,-0.003,-0.0046,0.0007,0.0042,0.0077,0.0094,0.0181,0.0149,0.0182,0.0285,0.0315,0.033,0.0343,0.0316,0.0326,0.0211,0.0211,0.0211,0,-0.033,-0.0266,-0.0207,-0.0164,-0.0139,-0.0105,-0.0085,-0.004,-0.0015,0.0007,0.0005,0.007,0.0101,0.0179,0.0223,0.0215,0.0193,0.0235,0.0332,0.0344,0.0356,0.0325,0.0334,0.0217,0.0216,0.0215,0.0215,0,-0.0312,-0.0246,-0.0222,-0.0141,-0.0094,-0.0069,-0.0006,0.0047,0.0083,0.0108,0.0181,0.0218,0.0253,0.0292,0.0299,0.0404,0.0345,0.0325,0.03,0.0381,0.0342,0.035,0.0225,0.0223,0.0221,0.022,0,0,-0.0427,-0.0253,-0.0245,-0.02,-0.0083,-0.0062,0.0041,0.0107,0.0142,0.0226,0.0266,0.0382,0.0394,0.0416,0.0436,0.0512,0.0593,0.0477,0.0476,0.0455,0.0613,0.0545,0.0545,0.0585,0.0588,0.059,0.0543,0,-0.0457,-0.0376,-0.0266,-0.019,-0.0154,-0.0045,0.0029,0.0115,0.0185,0.0244,0.0342,0.0379,0.0443,0.0451,0.0552,0.0552,0.0623,0.0605,0.0534,0.0531,0.0466,0.0557,0.0537,0.0492,0.055,0.0551,0.0552,0,-0.0498,-0.0429,-0.0369,-0.0224,-0.0202,-0.0137,-0.0026,0.0044,0.0174,0.0219,0.0324,0.0367,0.05,0.0523,0.0638,0.0613,0.0645,0.0665,0.0662,0.057,0.048,0.0426,0.0503,0.0564,0.0563,0.0562,0.0562,0,-0.0637,-0.0501,-0.0454,-0.0406,-0.0246,-0.0193,-0.0108,0.0023,0.0079,0.0196,0.0232,0.0367,0.0421,0.0507,0.0594,0.0606,0.0679,0.0676,0.0645,0.0636,0.0594,0.0578,0.0775,0.0775,0.0776,0.0776,0.0776,0,-0.0713,-0.0667,-0.0514,-0.049,-0.0433,-0.0294,-0.0226,-0.0128,-0.0009,0.0046,0.0201,0.0251,0.043,0.0501,0.057,0.0621,0.0653,0.0682,0.0644,0.0627,0.0615,0.0659,0.0646,0.0774,0.0774,0.0775,0.0775,0,-0.0834,-0.0742,-0.0687,-0.0544,-0.0489,-0.0455,-0.0276,-0.0234,-0.0119,-0.0044,-0.001,0.0172,0.0255,0.039,0.0501,0.0568,0.0613,0.0622,0.0566,0.0525,0.0551,0.0545,0.0584,0.0582,0.058,0.0578,0.0577,0,-0.0864,-0.0858,-0.0747,-0.0706,-0.0623,-0.0531,-0.0462,-0.0312,-0.0261,-0.011,-0.0095,0.0037,0.0093,0.0224,0.0373,0.0452,0.0527,0.0492,0.0552,0.0585,0.0544,0.054,0.0536,0.0521,0.0519,0.0518,0.0517,0,-0.0929,-0.0912,-0.0863,-0.0794,-0.072,-0.0641,-0.0531,-0.0521,-0.0374,-0.0326,-0.0282,-0.0238,-0.0053,0.007,0.0236,0.0296,0.0479,0.0464,0.0533,0.0568,0.0521,0.0482,0.0481,0.0504,0.0506,0.0507,0.0507,0.0508,-0.0974,-0.0968,-0.0916,-0.0848,-0.0778,-0.074,-0.0701,-0.0635,-0.0605,-0.0511,-0.0467,-0.0361,-0.0172,0.0053,0.0161,0.0333,0.0349,0.0424,0.0431,0.0439,0.0436,0.0389,0.0343,0.0343,0.0343,0.0344,0.0344,0,-0.1011,-0.0982,-0.0939,-0.0873,-0.0839,-0.0766,-0.0721,-0.0697,-0.0706,-0.0616,-0.0577,-0.0397,-0.0244,-0.0021,0.021,0.0306,0.0347,0.0346,0.0402,0.0412,0.0421,0.0422,0.0323,0.0323,0.0323,0.0324,0,0,-0.1023,-0.1006,-0.0985,-0.0933,-0.0874,-0.0818,-0.0809,-0.0795,-0.0727,-0.0673,-0.0557,-0.0443,-0.021,-0.0046,0.0099,0.0231,0.0296,0.0241,0.0244,0.0301,0.0309,0.0447,0.0454,0,0,0,0,0]}],[{"header":{"parameterUnit":"m.s-1","parameterCategory":2,"la1":30.2991,"la2":30.254,"lo1":-89.0895,"lo2":-89.0444,"dy":0.0017,"dx":0.0017,"nx":28,"ny":28,"refTime":"2025-12-27T03:00:00:Z","depth":"4","parameterNumber":2,"parameterNumberName":"U-component_of_CURRENTS"},"data":[0,0,0,0,0,0,0,0,0,0,0,0,0,0,0,0,0,0,0,0,0,0,0,0,0,0,0,0,0,0,0,0,0,0,0,0,0,0,0,0,0,0,0,0,0,0,0,0,0,0,0,0,0,0,0,0,0,0,-0.0519,-0.0519,0,-0.0584,-0.0585,-0.0585,-0.0637,-0.0637,-0.0638,-0.0638,-0.0732,-0.0733,-0.0735,0,0,0,0,0,0,0,0,0,0,0,0,0,-0.0488,-0.0488,-0.0518,-0.0519,-0.052,-0.0584,-0.0585,-0.0586,-0.0636,-0.0637,-0.0638,-0.0639,-0.0731,-0.0733,-0.0736,0,0,0,0,0,0,0,0,0,0,0,0,0,-0.0521,-0.0488,-0.0518,-0.0554,-0.0558,-0.0584,-0.0585,-0.0586,-0.0636,-0.0637,-0.0638,-0.0639,-0.073,-0.0733,-0.0736,-0.0736,0,0,-0.0745,-0.0746,0,0,0,0,0,0,0,0,-0.0519,-0.0522,-0.0548,-0.0552,-0.0556,-0.0604,-0.0608,-0.0638,-0.0636,-0.0606,-0.0638,-0.0639,-0.0691,-0.0698,-0.0706,-0.0741,-0.0745,-0.0745,-0.0747,-0.0748,-0.0749,0,0,0,0,0,0,0,-0.0516,-0.052,-0.0543,-0.0549,-0.0554,-0.0584,-0.0589,-0.0614,-0.0643,-0.0608,-0.0612,-0.0621,-0.0694,-0.0703,-0.0709,-0.0746,-0.0745,-0.0748,-0.0749,-0.075,-0.0871,-0.0872,0,0,0,0,0,0,-0.0507,-0.0517,-0.0541,-0.0546,-0.054,-0.0584,-0.059,-0.0587,-0.0642,-0.0651,-0.062,-0.0623,-0.0698,-0.0705,-0.0712,-0.0774,-0.0748,-0.0751,-0.0752,-0.0869,-0.0871,-0.0872,0,0,0,0,0,0,-0.0505,-0.0508,-0.0539,-0.0534,-0.0541,-0.0583,-0.058,-0.0588,-0.0613,-0.0651,-0.0661,-0.064,-0.0699,-0.0708,-0.0767,-0.0776,-0.0752,-0.0755,-0.0867,-0.087,-0.0872,-0.086,0,0,0,0,0,0,-0.0504,-0.0506,-0.0502,-0.0533,-0.0541,-0.0571,-0.058,-0.0588,-0.0617,-0.0622,-0.067,-0.0679,-0.07,-0.0763,-0.077,-0.0779,-0.0757,-0.0866,-0.0868,-0.0871,-0.0859,-0.0862,-0.0864,0,0,0,0,0,-0.0502,-0.05,-0.0501,-0.0505,-0.0532,-0.0572,-0.0579,-0.0612,-0.0617,-0.0636,-0.0678,-0.0678,-0.0785,-0.0767,-0.0775,-0.0785,-0.0864,-0.0868,-0.0871,-0.0857,-0.0861,-0.0864,0,0,0,0,0,0,-0.0497,-0.0506,-0.0508,-0.0511,-0.0544,-0.0582,-0.0595,-0.0616,-0.0661,-0.0671,-0.0699,-0.0712,-0.0766,-0.0783,-0.0762,-0.0831,-0.0823,-0.0828,-0.081,-0.0814,-0.0817,-0.0823,-0.0759,0,0,0,0,0,-0.0488,-0.0488,-0.0509,-0.0521,-0.0524,-0.0558,-0.0577,-0.0607,-0.0648,-0.0668,-0.0708,-0.0748,-0.0781,-0.0805,-0.0842,-0.0878,-0.0873,-0.0892,-0.0894,-0.0896,-0.091,-0.0913,-0.0916,-0.0883,-0.0883,-0.0883,0,0,-0.0491,-0.0499,-0.05,-0.052,-0.0538,-0.0565,-0.0572,-0.0611,-0.065,-0.0671,-0.0736,-0.0762,-0.0795,-0.0842,-0.0866,-0.0859,-0.0899,-0.0901,-0.0902,-0.0914,-0.0917,-0.0919,-0.0922,-0.0885,-0.0885,-0.0885,0,0,-0.051,-0.0498,-0.0503,-0.0527,-0.0562,-0.0582,-0.0594,-0.0641,-0.067,-0.0734,-0.0754,-0.0793,-0.0854,-0.0877,-0.0893,-0.0934,-0.0915,-0.0941,-0.0957,-0.0959,-0.0961,-0.0963,-0.0932,-0.0932,-0.094,-0.094,-0.094,0,-0.0505,-0.0518,-0.0519,-0.054,-0.0561,-0.0588,-0.0616,-0.065,-0.0724,-0.0737,-0.0763,-0.0844,-0.0871,-0.0908,-0.0928,-0.0938,-0.0926,-0.0934,-0.0959,-0.0962,-0.0964,-0.0932,-0.0931,-0.094,-0.094,-0.094,-0.094,0,-0.0532,-0.0545,-0.0553,-0.0577,-0.0607,-0.0636,-0.0676,-0.0715,-0.0749,-0.0773,-0.0832,-0.0883,-0.0933,-0.0936,-0.0948,-0.0974,-0.0954,-0.0958,-0.0942,-0.0966,-0.0931,-0.0931,-0.094,-0.094,-0.094,-0.094,0,0,-0.0506,-0.0551,-0.0559,-0.0574,-0.0625,-0.0652,-0.0705,-0.074,-0.0764,-0.0832,-0.0857,-0.0927,-0.0948,-0.0972,-0.099,-0.0991,-0.0984,-0.0984,-0.0984,-0.0936,-0.0962,-0.09,-0.0893,-0.0986,-0.0987,-0.0987,-0.092,0,-0.0519,-0.0557,-0.0585,-0.0635,-0.0649,-0.0688,-0.0731,-0.0775,-0.0816,-0.0849,-0.0881,-0.0922,-0.0963,-0.0987,-0.1004,-0.0982,-0.0987,-0.1,-0.0962,-0.0961,-0.089,-0.0893,-0.0989,-0.0919,-0.0919,-0.0919,-0.0919,0,-0.0534,-0.0556,-0.0596,-0.0645,-0.0652,-0.0694,-0.0748,-0.0791,-0.0829,-0.0865,-0.0916,-0.0936,-0.0964,-0.0995,-0.1003,-0.1006,-0.1003,-0.0984,-0.098,-0.0933,-0.09,-0.0901,-0.0918,-0.0918,-0.0918,-0.0918,-0.0918,0,-0.0514,-0.0565,-0.0592,-0.0612,-0.067,-0.07,-0.0733,-0.0789,-0.0808,-0.087,-0.0886,-0.0937,-0.0961,-0.0971,-0.097,-0.0981,-0.0943,-0.095,-0.0894,-0.0888,-0.0966,-0.0965,-0.097,-0.097,-0.097,-0.097,-0.097,0,-0.0508,-0.0531,-0.0585,-0.06,-0.0628,-0.0685,-0.0723,-0.0769,-0.0814,-0.0819,-0.0894,-0.0927,-0.096,-0.0947,-0.0948,-0.091,-0.0939,-0.0897,-0.0874,-0.096,-0.096,-0.0963,-0.0963,-0.0968,-0.0968,-0.0969,-0.0969,0,-0.0481,-0.0516,-0.0542,-0.0601,-0.0619,-0.0639,-0.0695,-0.0712,-0.0782,-0.0796,-0.0809,-0.0888,-0.0891,-0.0892,-0.0883,-0.0874,-0.0838,-0.0827,-0.089,-0.0872,-0.0781,-0.0782,-0.074,-0.0738,-0.0736,-0.0734,-0.0732,0,-0.0471,-0.0485,-0.0527,-0.0536,-0.0562,-0.0601,-0.0619,-0.0688,-0.0704,-0.0775,-0.0762,-0.0793,-0.0839,-0.0767,-0.0802,-0.0763,-0.078,-0.0746,-0.0802,-0.0779,-0.0761,-0.0765,-0.0769,-0.0729,-0.0728,-0.0728,-0.0727,0,-0.045,-0.0463,-0.0477,-0.0491,-0.0511,-0.0519,-0.0553,-0.0551,-0.0619,-0.0677,-0.0705,-0.0718,-0.072,-0.0734,-0.0705,-0.0696,-0.0749,-0.0723,-0.0729,-0.0782,-0.0764,-0.075,-0.0756,-0.072,-0.0721,-0.0721,-0.0722,0,-0.0429,-0.0426,-0.0444,-0.0448,-0.0454,-0.0435,-0.0461,-0.0484,-0.0506,-0.0581,-0.0594,-0.0652,-0.0711,-0.07,-0.0677,-0.0648,-0.0656,-0.0642,-0.0652,-0.066,-0.067,-0.0639,-0.0533,0,0,0,0,0,-0.0411,-0.0403,-0.0404,-0.0397,-0.0388,-0.0392,-0.0414,-0.0442,-0.0499,-0.049,-0.0539,-0.0549,-0.0565,-0.0614,-0.0567,-0.0634,-0.0642,-0.0577,-0.0626,-0.0678,-0.0687,-0.0709,0,0,0,0,0,0,-0.04,-0.04,-0.0394,-0.035,-0.0328,-0.0316,-0.0321,-0.0356,-0.0365,-0.0434,-0.0449,-0.0512,-0.0534,-0.0576,-0.0558,-0.0562,-0.0579,-0.0612,-0.0611,-0.0673,-0.0681,-0.0688,-0.0714,0,0,0,0,0]},{"header":{"parameterUnit":"m.s-1","parameterCategory":2,"la1":30.2991,"la2":30.254,"lo1":-89.0895,"lo2":-89.0444,"dy":0.0017,"dx":0.0017,"nx":28,"ny":28,"refTime":"2025-12-27T03:00:00:Z","depth":"4","parameterNumber":3,"parameterNumberName":"V-component_of_CURRENTS"},"data":[0,0,0,0,0,0,0,0,0,0,0,0,0,0,0,0,0,0,0,0,0,0,0,0,0,0,0,0,0,0,0,0,0,0,0,0,0,0,0,0,0,0,0,0,0,0,0,0,0,0,0,0,0,0,0,0,0,0,-0.0693,-0.0693,0,-0.0694,-0.0694,-0.0694,-0.0714,-0.0714,-0.0715,-0.0715,-0.0739,-0.0739,-0.0739,0,0,0,0,0,0,0,0,0,0,0,0,0,-0.0672,-0.0672,-0.0693,-0.0693,-0.0693,-0.0694,-0.0694,-0.0694,-0.0714,-0.0714,-0.0715,-0.0716,-0.0739,-0.0739,-0.0739,0,0,0,0,0,0,0,0,0,0,0,0,0,-0.0677,-0.0672,-0.0693,-0.0703,-0.0704,-0.0694,-0.0694,-0.0694,-0.0714,-0.0714,-0.0715,-0.0716,-0.0739,-0.0739,-0.0739,-0.0725,0,0,-0.074,-0.074,0,0,0,0,0,0,0,0,-0.0677,-0.0678,-0.0702,-0.0702,-0.0703,-0.0705,-0.0695,-0.0705,-0.0713,-0.071,-0.0715,-0.0716,-0.0729,-0.073,-0.0728,-0.0726,-0.0727,-0.074,-0.074,-0.074,-0.074,0,0,0,0,0,0,0,-0.0677,-0.0678,-0.0693,-0.0702,-0.0703,-0.0695,-0.0697,-0.0697,-0.0715,-0.071,-0.0712,-0.0712,-0.073,-0.0728,-0.0729,-0.0727,-0.074,-0.074,-0.074,-0.0741,-0.0748,-0.0748,0,0,0,0,0,0,-0.0678,-0.0678,-0.0693,-0.0693,-0.0692,-0.0695,-0.0697,-0.0703,-0.0715,-0.0717,-0.0711,-0.0713,-0.0727,-0.0729,-0.073,-0.0741,-0.074,-0.0741,-0.0741,-0.0748,-0.0748,-0.0748,0,0,0,0,0,0,-0.0678,-0.068,-0.0693,-0.0685,-0.0686,-0.0695,-0.0701,-0.0703,-0.0716,-0.0715,-0.0718,-0.0725,-0.0728,-0.073,-0.0741,-0.0741,-0.0741,-0.0741,-0.0748,-0.0748,-0.0748,-0.0745,0,0,0,0,0,0,-0.0677,-0.068,-0.069,-0.0685,-0.0687,-0.0694,-0.07,-0.0702,-0.0714,-0.0717,-0.0728,-0.073,-0.0729,-0.0741,-0.0741,-0.0741,-0.0741,-0.0748,-0.0748,-0.0748,-0.0745,-0.0745,-0.0745,0,0,0,0,0,-0.0676,-0.0683,-0.0691,-0.0693,-0.07,-0.0694,-0.0694,-0.0701,-0.0714,-0.0718,-0.0728,-0.073,-0.0742,-0.0741,-0.0742,-0.0742,-0.0747,-0.0748,-0.0748,-0.0745,-0.0745,-0.0745,0,0,0,0,0,0,-0.0679,-0.0686,-0.0694,-0.0703,-0.0703,-0.0697,-0.0695,-0.0709,-0.0719,-0.0727,-0.0732,-0.0734,-0.0743,-0.0744,-0.0743,-0.0744,-0.0745,-0.0745,-0.0742,-0.0742,-0.0742,-0.074,-0.0741,0,0,0,0,0,-0.0684,-0.0695,-0.0694,-0.0704,-0.0697,-0.0701,-0.0702,-0.0713,-0.0717,-0.0724,-0.0734,-0.0741,-0.074,-0.0744,-0.0745,-0.0747,-0.0741,-0.0747,-0.0747,-0.0747,-0.0746,-0.0743,-0.0743,-0.0748,-0.0748,-0.0748,0,0,-0.0686,-0.0694,-0.0699,-0.0706,-0.0699,-0.0696,-0.0703,-0.0707,-0.0717,-0.0724,-0.074,-0.0743,-0.0741,-0.0742,-0.0745,-0.0745,-0.074,-0.0747,-0.0747,-0.0746,-0.0743,-0.0743,-0.0742,-0.0748,-0.0748,-0.0748,0,0,-0.0688,-0.0698,-0.0701,-0.0701,-0.0703,-0.0702,-0.0708,-0.0712,-0.0722,-0.0733,-0.0741,-0.0751,-0.0749,-0.0752,-0.0749,-0.0752,-0.074,-0.0748,-0.0746,-0.0743,-0.0743,-0.0742,-0.0721,-0.0718,-0.0748,-0.0748,-0.0748,0,-0.069,-0.0703,-0.07,-0.0701,-0.0706,-0.0706,-0.0711,-0.071,-0.0729,-0.0736,-0.0739,-0.0747,-0.0753,-0.0752,-0.075,-0.0752,-0.0738,-0.0745,-0.0743,-0.0742,-0.0742,-0.072,-0.0718,-0.0748,-0.0748,-0.0748,-0.0748,0,-0.0686,-0.0703,-0.0698,-0.0704,-0.0708,-0.0711,-0.071,-0.0722,-0.0733,-0.0736,-0.0745,-0.0749,-0.0759,-0.0755,-0.0749,-0.0748,-0.0734,-0.0743,-0.0742,-0.0741,-0.0718,-0.0715,-0.0747,-0.0748,-0.0748,-0.0748,0,0,-0.0678,-0.0694,-0.0697,-0.0709,-0.0717,-0.0718,-0.0727,-0.0732,-0.0748,-0.0745,-0.0759,-0.0751,-0.076,-0.0758,-0.076,-0.0748,-0.0731,-0.0739,-0.0739,-0.0716,-0.0703,-0.0613,-0.0602,-0.0734,-0.0734,-0.0734,-0.0684,0,-0.0678,-0.0687,-0.0704,-0.0721,-0.0719,-0.0735,-0.0747,-0.0757,-0.0764,-0.0772,-0.076,-0.0771,-0.0757,-0.0772,-0.0755,-0.0745,-0.0726,-0.0743,-0.071,-0.0708,-0.0627,-0.0597,-0.0733,-0.0682,-0.0681,-0.0681,-0.0681,0,-0.0668,-0.0683,-0.0699,-0.0739,-0.074,-0.0757,-0.0786,-0.0801,-0.0803,-0.0812,-0.081,-0.0802,-0.0789,-0.0782,-0.0744,-0.0752,-0.0726,-0.0705,-0.0703,-0.0619,-0.0613,-0.0687,-0.0676,-0.0676,-0.0676,-0.0677,-0.0677,0,-0.0654,-0.0682,-0.0702,-0.0711,-0.0745,-0.077,-0.0793,-0.0813,-0.0823,-0.0842,-0.0847,-0.0831,-0.0827,-0.0793,-0.0734,-0.0748,-0.0671,-0.0698,-0.0586,-0.058,-0.068,-0.0681,-0.0666,-0.0666,-0.0666,-0.0666,-0.0666,0,-0.0644,-0.0663,-0.0699,-0.071,-0.0744,-0.0774,-0.0811,-0.0837,-0.0857,-0.0857,-0.087,-0.0856,-0.0827,-0.0772,-0.0731,-0.0626,-0.0672,-0.0569,-0.0556,-0.0678,-0.068,-0.0677,-0.0679,-0.0664,-0.0665,-0.0665,-0.0665,0,-0.0623,-0.0645,-0.0671,-0.0719,-0.0738,-0.0762,-0.0812,-0.0829,-0.0865,-0.0868,-0.0872,-0.086,-0.0792,-0.0729,-0.0665,-0.0613,-0.0539,-0.0492,-0.0597,-0.0594,-0.0455,-0.0458,-0.0383,-0.0379,-0.0376,-0.0373,-0.0371,0,-0.0612,-0.0623,-0.0671,-0.0691,-0.0719,-0.0757,-0.0783,-0.0827,-0.0833,-0.0855,-0.0839,-0.0791,-0.0763,-0.0596,-0.0549,-0.0442,-0.0427,-0.0398,-0.0447,-0.0429,-0.0425,-0.0432,-0.0439,-0.0366,-0.0365,-0.0364,-0.0364,0,-0.0601,-0.062,-0.0642,-0.0675,-0.0708,-0.0734,-0.0768,-0.0762,-0.08,-0.0828,-0.0785,-0.0724,-0.0629,-0.0543,-0.0439,-0.0374,-0.0428,-0.0366,-0.0373,-0.0419,-0.0408,-0.0409,-0.0419,-0.0353,-0.0354,-0.0355,-0.0356,0,-0.0596,-0.0605,-0.0633,-0.0659,-0.0696,-0.0708,-0.0725,-0.0722,-0.0728,-0.0743,-0.0717,-0.0663,-0.0639,-0.0503,-0.0414,-0.0324,-0.0325,-0.0328,-0.0338,-0.0349,-0.035,-0.0331,-0.0225,0,0,0,0,0,-0.0583,-0.0593,-0.0617,-0.0646,-0.0677,-0.0699,-0.0715,-0.0725,-0.0741,-0.0695,-0.0705,-0.0616,-0.0493,-0.0455,-0.0345,-0.0363,-0.0312,-0.0232,-0.0321,-0.0293,-0.0305,-0.0302,0,0,0,0,0,0,-0.0579,-0.0599,-0.0607,-0.0627,-0.0646,-0.0677,-0.0687,-0.0697,-0.0661,-0.0671,-0.0596,-0.0594,-0.0463,-0.0552,-0.0346,-0.0324,-0.0365,-0.0186,-0.0184,-0.0286,-0.0297,-0.0307,-0.0308,0,0,0,0,0]}]]